Track YAOGAN 21 now! 10-day predictions YAOGAN 21 is classified as:
1 40143U 14053A 24280.48907969 .00025171 00000-0 10384-2 0 9997 2 40143 97.2391 334.7788 0008040 147.4353 212.7382 15.24006812560762